Location: Newark
(35.8833°N, 14.5000°E)
Time: 00:21:54
(UTC+00:00)

Altair - Pass Details

Date: 26 November 2019
Orbit: 1502 x 1682 km, 47.2° (Epoch: 14 December)

Event Time Altitude Azimuth Distance (km) Brightness Sun altitude
Rises 05:16:39 0° 302° (WNW) 4,636 - -6.8°
Exits shadow 05:18:36 - 304° (NW) 4,010 9.0 -6.4°
Reaches altitude 10° 05:19:42 10° 305° (NW) 3,657 8.9 -6.2°
Maximum altitude 05:28:52 67° 28° (NNE) 1,635 7.7 -4.5°
Drops below altitude 10° 05:38:14 10° 110° (ESE) 3,743 11.6 -2.8°
Sets 05:41:23 0° 113° (ESE) 4,749 14.0 -2.2°
